Powrót do katalogu

FENGYUN 1C DEB

AktywnySSO
NORAD 31455·DEBRIS·🇨🇳 China

Wystrzelony May 10, 1999 z Taiyuan Satellite Launch Center

Loading…

Następne Przeloty (najbliższe 24 godziny)

TLE

ŚwieżeSource: Space-Track

Epoka: Sep 14, 2026, 05:05 UTC

1 31455U 99025BUT 26257.21218518  .00000373  00000-0  18355-3 0  9991
2 31455  98.6003 238.9111 0216925 345.2143  14.2750 14.11718050999901

Śledź FENGYUN 1C DEB w czasie rzeczywistym z AllMySat

Download on the App Store